Terminal Aerodrome Forecast
Issued by NWS

Home | Current Version | Previous Version | Text Only | Print | Product List | Glossary On
Versions: 1 2 3 4 5 6 7 8 9 10 11 12 13
000
FTUS45 KABQ 291120
TAFGUP
TAF
KGUP 291120Z 2912/3012 22006KT P6SM BKN080
     FM291600 25013KT P6SM VCSH BKN035 OVC080
     FM292000 26015G25KT P6SM VCSH OVC050
     FM300200 29009KT P6SM BKN080=

USA.gov is the U.S. government's official web portal to all federal, state and local government web resources and services.